7 * 24
多渠道服务支持
GEESAT-1 03 是一颗由学生团队设计和建造的教育型立方星,主要用于地球观测和通信实验。该卫星搭载了高分辨率摄像头和数据传输模块,旨在支持环境监测和遥感研究。作为GEESAT系列的第三颗卫星,它在技术验证和教学应用方面具有重要意义。
中国
(CN)
| 数据来源 | 国际轨道数据 |
| 星历时间: | 2025-12-14T14:59:55+0800 1天前 查看轨道信息 |
| 半长轴: | 6951.879km |
| 偏心率: | 0.0000855 |
| 轨道倾角: | 49.988° |
| 近地点辐角 | 134.271° |
| 升交点赤经 | 340.013° |
| 平近点角 | 225.830° |
| 近地点: | 573.149km |
| 远地点: | 574.339km |
| 周期: | 96.142分钟 |
| 每日圈数: | 14.977851 |